Clarksdale Fletcher Field Air, MS

12:09 PM CST on December 16, 2017 (GMT -0600)
Fletcher

Weather History for KCKM - February, 2014

Change the Weather History Date:

Wednesday, February 5, 2014

  Actual Average (KUOX) Record (KUOX)
Temperature  
Mean Temperature 32 °F -  
Max Temperature 35 °F 51 °F 71 °F (1991)
Min Temperature 28 °F 28 °F 5 °F (1985)
Degree Days  
Heating Degree Days 34    
Moisture  
Dew Point 28 °F    
Average Humidity 87    
Maximum Humidity 100    
Minimum Humidity 75    
Precipitation  
Precipitation 0.00 in - - ()
Sea Level Pressure  
Sea Level Pressure 30.31 in    
Wind  
Wind Speed 11 mph (NW)    
Max Wind Speed 21 mph    
Max Gust Speed 28 mph    
Visibility 10 miles    
Events      
Averages and records for this station are not official NWS values.
T = Trace of Precipitation, MM = Missing Value Source: NWS Daily Summary

Daily Weather History Graph

Daily Weather History Graph

Search for Another Location

Airport or City:

Trip Planner

Search our weather history database for the weather conditions in past years. The results will help you decide how hot, cold, wet, or windy it might be!

Date:

Astronomy

Feb. 05, 2014 Rise Set
Actual Time 6:56 AM CST 5:36 PM CST
Civil Twilight 6:30 AM CST 6:02 PM CST
Nautical Twilight 6:00 AM CST 6:32 PM CST
Astronomical Twilight 5:31 AM CST 7:01 PM CST
Moon 10:29 AM CST (2/5) No Moon Set
Length of Visible Light 11h 31m
Length of Day
10h 39m
Waxing Crescent, 39% of the Moon is Illuminated
Feb 5
Waxing Crescent
Feb 6
First Quarter
Feb 14
Full
Feb 22
Last Quarter
Mar 1
New

Hourly Weather History & Observations

Time (CST) Temp. Windchill Dew Point Humidity Pressure Visibility Wind Dir Wind Speed Gust Speed Precip Events Conditions
12:15 AM 32.0 °F 23.6 °F 32.0 °F 100% 30.03 in 10.0 mi West 10.4 mph - N/A   Overcast
12:35 AM 32.0 °F 22.5 °F 32.0 °F 100% 30.03 in 10.0 mi West 12.7 mph - N/A   Overcast
12:55 AM 32.0 °F 22.1 °F 32.0 °F 100% 30.04 in 10.0 mi West 13.8 mph - N/A   Overcast
1:15 AM 32.0 °F 23.6 °F 32.0 °F 100% 30.04 in 10.0 mi WNW 10.4 mph - N/A   Overcast
1:35 AM 33.8 °F 27.0 °F 32.0 °F 93% 30.05 in 10.0 mi West 8.1 mph - N/A   Overcast
1:55 AM 32.0 °F 24.8 °F 32.0 °F 100% 30.06 in 10.0 mi WSW 8.1 mph - N/A   Overcast
2:15 AM 32.0 °F 23.6 °F 32.0 °F 100% 30.06 in 10.0 mi West 10.4 mph - N/A   Overcast
2:35 AM 32.0 °F 23.6 °F 32.0 °F 100% 30.07 in 10.0 mi West 10.4 mph - N/A   Overcast
2:55 AM 32.0 °F 24.8 °F 32.0 °F 100% 30.07 in 10.0 mi West 8.1 mph - N/A   Overcast
3:15 AM 32.0 °F 27.5 °F 32.0 °F 100% 30.08 in 10.0 mi WSW 4.6 mph - N/A   Overcast
3:35 AM 32.0 °F - 32.0 °F 100% 30.09 in 10.0 mi Calm Calm - N/A   Overcast
3:55 AM 32.0 °F - 32.0 °F 100% 30.09 in 10.0 mi Calm Calm - N/A   Overcast
4:15 AM 32.0 °F 27.5 °F 32.0 °F 100% 30.10 in 10.0 mi SSW 4.6 mph - N/A   Mostly Cloudy
4:35 AM 32.0 °F 25.6 °F 32.0 °F 100% 30.12 in 10.0 mi WSW 6.9 mph - N/A   Mostly Cloudy
4:55 AM 33.8 °F 24.3 °F 33.8 °F 100% 30.14 in 10.0 mi West 13.8 mph - N/A   Overcast
5:15 AM 35.6 °F 26.2 °F 32.0 °F 87% 30.14 in 10.0 mi West 15.0 mph 21.9 mph N/A   Overcast
5:35 AM 35.6 °F 27.5 °F 32.0 °F 87% 30.15 in 10.0 mi West 11.5 mph - N/A   Overcast
5:55 AM 33.8 °F 27.0 °F 32.0 °F 93% 30.16 in 10.0 mi West 8.1 mph - N/A   Mostly Cloudy
6:15 AM 33.8 °F 30.8 °F 32.0 °F 93% 30.17 in 10.0 mi West 3.5 mph - N/A   Mostly Cloudy
6:35 AM 33.8 °F 28.6 °F 32.0 °F 93% 30.19 in 10.0 mi WNW 5.8 mph - N/A   Overcast
6:55 AM 35.6 °F 29.9 °F 32.0 °F 87% 30.19 in 10.0 mi WNW 6.9 mph - N/A   Overcast
7:15 AM 35.6 °F 28.0 °F 32.0 °F 87% 30.21 in - WNW 10.4 mph - N/A   Overcast
7:35 AM 35.6 °F 28.6 °F 32.0 °F 87% 30.22 in 10.0 mi WNW 9.2 mph - N/A   Overcast
7:55 AM 35.6 °F 28.6 °F 32.0 °F 87% 30.23 in 10.0 mi WNW 9.2 mph - N/A   Overcast
8:15 AM 35.6 °F 28.6 °F 32.0 °F 87% 30.25 in 10.0 mi WNW 9.2 mph - N/A   Overcast
8:35 AM 35.6 °F 27.5 °F 32.0 °F 87% 30.26 in 10.0 mi WNW 11.5 mph - N/A   Unknown
8:55 AM 35.6 °F 27.1 °F 32.0 °F 87% 30.27 in 10.0 mi NW 12.7 mph - N/A   Mostly Cloudy
9:15 AM 35.6 °F 26.2 °F 32.0 °F 87% 30.29 in 10.0 mi NW 15.0 mph 21.9 mph N/A   Overcast
9:35 AM 35.6 °F 25.2 °F 32.0 °F 87% 30.30 in 10.0 mi NW 18.4 mph 25.3 mph N/A   Unknown
9:55 AM 35.6 °F 26.2 °F 32.0 °F 87% 30.32 in 10.0 mi NW 15.0 mph 23.0 mph N/A   Unknown
10:15 AM 35.6 °F 24.5 °F 30.2 °F 81% 30.33 in 10.0 mi NW 20.7 mph 27.6 mph N/A   Unknown
10:35 AM 32.0 °F 20.5 °F 26.6 °F 80% 30.33 in 10.0 mi NW 18.4 mph 27.6 mph N/A   Unknown
10:55 AM 33.8 °F 23.2 °F 28.4 °F 81% 30.34 in 10.0 mi NW 17.3 mph 24.2 mph N/A   Unknown
11:15 AM 32.0 °F 19.8 °F 26.6 °F 80% 30.35 in 10.0 mi NW 20.7 mph 27.6 mph N/A   Unknown
11:35 AM 32.0 °F 20.1 °F 24.8 °F 75% 30.35 in 10.0 mi NW 19.6 mph 26.5 mph N/A   Unknown
11:55 AM 32.0 °F 22.1 °F 24.8 °F 75% 30.35 in 10.0 mi NW 13.8 mph - N/A   Unknown
12:15 PM 32.0 °F 20.8 °F 24.8 °F 75% 30.35 in 10.0 mi NNW 17.3 mph 21.9 mph N/A   Unknown
12:35 PM 32.0 °F 22.5 °F 24.8 °F 75% 30.36 in - NNW 12.7 mph - N/A   Overcast
12:55 PM 30.2 °F 20.2 °F 24.8 °F 80% 30.36 in 10.0 mi NNW 12.7 mph 21.9 mph N/A   Overcast
1:15 PM 30.2 °F 20.8 °F 24.8 °F 80% 30.36 in 10.0 mi NNW 11.5 mph 17.3 mph N/A   Overcast
1:35 PM 28.4 °F 17.5 °F 24.8 °F 86% 30.37 in 10.0 mi NW 13.8 mph - N/A   Overcast
1:55 PM 28.4 °F 18.5 °F 23.0 °F 80% 30.38 in - NNW 11.5 mph 16.1 mph N/A   Overcast
2:15 PM 30.2 °F 21.3 °F 23.0 °F 75% 30.39 in - NNW 10.4 mph 17.3 mph N/A   Overcast
2:35 PM 30.2 °F 22.6 °F 23.0 °F 75% 30.39 in 10.0 mi NNW 8.1 mph 16.1 mph N/A   Overcast
2:55 PM 30.2 °F 20.2 °F 24.8 °F 80% 30.39 in 9.0 mi NNW 12.7 mph - N/A   Overcast
3:15 PM 30.2 °F 20.8 °F 24.8 °F 80% 30.41 in 9.0 mi NW 11.5 mph 16.1 mph N/A   Overcast
3:35 PM 30.2 °F 21.9 °F 24.8 °F 80% 30.42 in - NNW 9.2 mph 17.3 mph N/A   Overcast
3:55 PM 28.4 °F 19.1 °F 24.8 °F 86% 30.43 in 9.0 mi NNW 10.4 mph - N/A   Overcast
4:15 PM 30.2 °F 21.3 °F 24.8 °F 80% 30.43 in 9.0 mi NNW 10.4 mph - N/A   Overcast
4:35 PM 30.2 °F 20.8 °F 23.0 °F 75% 30.44 in 9.0 mi NNW 11.5 mph - N/A   Overcast
4:55 PM 28.4 °F 16.6 °F 23.0 °F 80% 30.43 in - North 16.1 mph - N/A   Overcast
5:15 PM 28.4 °F 18.5 °F 24.8 °F 86% 30.45 in 8.0 mi North 11.5 mph - N/A   Overcast
5:35 PM 28.4 °F 17.0 °F 24.8 °F 86% 30.45 in 10.0 mi North 15.0 mph 19.6 mph N/A   Overcast
5:55 PM 28.4 °F 17.5 °F 24.8 °F 86% 30.45 in 10.0 mi North 13.8 mph - N/A   Overcast
6:15 PM 28.4 °F 16.6 °F 24.8 °F 86% 30.46 in 10.0 mi North 16.1 mph - N/A   Overcast
6:35 PM 28.4 °F 17.0 °F 24.8 °F 86% 30.47 in 10.0 mi North 15.0 mph - N/A   Overcast
6:55 PM 28.4 °F 17.5 °F 23.0 °F 80% 30.47 in 10.0 mi North 13.8 mph 20.7 mph N/A   Overcast
7:15 PM 28.4 °F 16.2 °F 24.8 °F 86% 30.47 in 10.0 mi North 17.3 mph - N/A   Overcast
7:35 PM 28.4 °F 17.0 °F 23.0 °F 80% 30.47 in 10.0 mi North 15.0 mph 23.0 mph N/A   Overcast
7:55 PM 28.4 °F 20.4 °F 24.8 °F 86% 30.50 in 10.0 mi NNW 8.1 mph - N/A   Overcast
8:15 PM 28.4 °F 19.1 °F 24.8 °F 86% 30.50 in 10.0 mi NNW 10.4 mph 17.3 mph N/A   Overcast
8:35 PM 28.4 °F 18.0 °F 24.8 °F 86% 30.50 in 10.0 mi NNW 12.7 mph 18.4 mph N/A   Overcast
8:55 PM 30.2 °F 18.9 °F 24.8 °F 80% 30.50 in 10.0 mi North 16.1 mph 19.6 mph N/A   Overcast
9:15 PM 28.4 °F 15.8 °F 23.0 °F 80% 30.49 in 10.0 mi North 18.4 mph 23.0 mph N/A   Overcast
9:35 PM 28.4 °F 17.0 °F 23.0 °F 80% 30.50 in 10.0 mi North 15.0 mph 21.9 mph N/A   Overcast
9:55 PM 28.4 °F 16.2 °F 23.0 °F 80% 30.49 in 10.0 mi North 17.3 mph 25.3 mph N/A   Overcast
10:15 PM 28.4 °F 15.1 °F 24.8 °F 86% 30.48 in 10.0 mi North 20.7 mph - N/A   Overcast
10:35 PM 28.4 °F 17.5 °F 24.8 °F 86% 30.48 in 10.0 mi North 13.8 mph - N/A   Overcast
10:55 PM 28.4 °F 17.5 °F 24.8 °F 86% 30.48 in 10.0 mi North 13.8 mph 20.7 mph N/A   Overcast
11:15 PM 28.4 °F 17.0 °F 24.8 °F 86% 30.48 in 10.0 mi North 15.0 mph - N/A   Overcast
11:35 PM 30.2 °F 23.4 °F 24.8 °F 80% 30.48 in 10.0 mi NNW 6.9 mph - N/A   Overcast
11:55 PM 30.2 °F 19.3 °F 24.8 °F 80% 30.48 in 10.0 mi North 15.0 mph 20.7 mph N/A   Overcast